Regional Weather Roundup
Issued by NWS

Home | Current Version | Previous Version | Graphics & Text | Print | Product List | Glossary On
Versions: 1 2 3 4 5 6 7 8 9 10 11 12 13 14 15 16 17 18 19 20 21 22 23 24 25 26 27 28 29 30 31 32 33 34 35 36 37 38 39 40 41 42 43 44 45 46 47 48 49 50
890
ASUS45 KBOI 221910
RWRID

IDAHO REGIONAL WEATHER ROUNDUP
NATIONAL WEATHER SERVICE BOISE ID
100 PM MDT TUE MAY 22 2018

NOTE: "FAIR" INDICATES FEW OR NO CLOUDS BELOW 12000 FEET
WITH NO SIGNIFICANT WEATHER AND/OR OBSTRUCTIONS TO VISIBILITY

IDZ012-014-222000-
SOUTHWEST IDAHO


CITY           SKY/WX    TMP DP  RH WIND       PRES   REMARKS
BOISE          MOSUNNY   72  53  51 CALM      29.88F
CALDWELL       MOSUNNY   76  53  44 N5        29.87F
MOUNTAIN HOME  MOSUNNY   74  52  44 CALM      29.87F
$$

IDZ016-017-222000-
SOUTHCENTRAL IDAHO


CITY           SKY/WX    TMP DP  RH WIND       PRES   REMARKS
BURLEY         MOSUNNY   74  50  42 VRB3      29.90F
JEROME         PTSUNNY   69  50  50 S7        29.93F
TWIN FALLS     PTSUNNY   70  50  49 VRB6      29.93F
$$

IDZ019>023-222000-
SOUTHEAST IDAHO


CITY           SKY/WX    TMP DP  RH WIND       PRES   REMARKS
IDAHO FALLS    MOSUNNY   70  47  43 NE6       29.95F
POCATELLO      PTSUNNY   70  51  51 NE6       29.93F
REXBURG        MOSUNNY   72  43  35 VRB5      29.93F
$$

IDZ006-010-011-018-031-032-222000-
CENTRAL IDAHO MOUNTAINS


CITY           SKY/WX    TMP DP  RH WIND       PRES   REMARKS
MCCALL         SUNNY     68  46  45 VRB5      29.93F
HAILEY         MOSUNNY   68  46  45 NW6       29.97F
STANLEY          N/A     58  40  51 S7        30.04F
SALMON         MOSUNNY   69  51  52 SW8       29.94F
CHALLIS        PTSUNNY   64  47  53 CALM      29.99F
$$

IDZ002-004-006-007-026-222000-
NORTHERN IDAHO


CITY           SKY/WX    TMP DP  RH WIND       PRES   REMARKS
LEWISTON       SUNNY     75  56  51 VRB3      29.88F
LOWELL           N/A     76  53  44 CALM      29.85F
COEUR D`ALENE  SUNNY     77  48  35 N10       29.93F
MULLAN PASS    PTSUNNY   59  43  55 CALM      30.08F
$$




USA.gov is the U.S. government's official web portal to all federal, state and local government web resources and services.